This demonstration page uses our WeatherBlox Daily Observations layout. Learn more.

Left ArrowRight Arrow

39.51506, -84.39828

Hourly Observations for October 11, 2020

Temp ( °F °C ) Dew Point ( °F °C ) Humidity (%) Winds ( mph kmh ) Pressure ( in mb ) Visibility ( mi km ) Precip ( " mm )
12:15 am 00:15 Hazy 61 16 N/A N/A Calm 29.96 1015 4 6.43736 0 0
12:35 am 00:35 Hazy 61 16 N/A N/A Calm 29.96 1015 7 11.26538 0 0
12:55 am 00:55 Hazy 61 16 N/A N/A Calm 29.96 1015 5 8.0467 0 0
1:15 am 01:15 Mostly Cloudy with Mist and Fog 61 16 N/A N/A Calm 29.96 1015 0.75 1.207005 0 0
1:35 am 01:35 Hazy 61 16 N/A N/A Calm 29.96 1015 5 8.0467 0 0
1:55 am 01:55 Hazy 61 16 N/A N/A Calm 29.95 1014 5 8.0467 0 0
2:15 am 02:15 Hazy 61 16 N/A N/A Calm 29.95 1014 5 8.0467 0 0
2:35 am 02:35 Hazy 61 16 N/A N/A Calm 29.95 1014 4 6.43736 0 0
2:55 am 02:55 Hazy 61 16 N/A N/A Calm 29.95 1014 5 8.0467 0 0
3:15 am 03:15 Hazy 61 16 N/A N/A Calm 29.94 1014 5 8.0467 0 0
3:35 am 03:35 Hazy 61 16 N/A N/A Calm 29.94 1014 5 8.0467 0 0
3:55 am 03:55 Hazy 61 16 N/A N/A Calm 29.94 1014 4 6.43736 0 0
4:15 am 04:15 Clear with Mist and Fog 61 16 N/A N/A Calm 29.94 1014 4 6.43736 0 0
4:35 am 04:35 Clear with Mist and Fog 59 15 N/A N/A Calm 29.94 1014 2.5 4.02335 0 0
4:55 am 04:55 Partly Cloudy with Mist and Fog 59 15 N/A N/A Calm 29.95 1014 3.5 5.63269 0 0
5:15 am 05:15 Clear with Mist and Fog 59 15 N/A N/A NE 3 6 29.94 1014 3 4.82802 0 0
5:35 am 05:35 Clear with Mist and Fog 61 16 N/A N/A Calm 29.93 1014 3.5 5.63269 0 0
5:55 am 05:55 Hazy 61 16 N/A N/A Calm 29.93 1014 5 8.0467 0 0
6:15 am 06:15 Hazy 61 16 N/A N/A ENE 3 6 29.93 1014 5 8.0467 0 0
6:35 am 06:35 Hazy 61 16 N/A N/A Calm 29.93 1014 5 8.0467 0 0
6:55 am 06:55 Clear 61 16 N/A N/A NE 3 6 29.93 1014 7 11.26538 0 0
7:15 am 07:15 Clear 61 16 N/A N/A NE 5 7 29.93 1014 10 16.0934 0 0
7:35 am 07:35 Clear 61 16 N/A N/A ENE 8 13 29.93 1014 10 16.0934 0 0
7:55 am 07:55 Sunny 61 16 N/A N/A NE 8 13 29.93 1014 10 16.0934 0 0
8:15 am 08:15 Sunny 61 16 N/A N/A NE 7 11 29.93 1014 10 16.0934 0 0
8:35 am 08:35 Sunny 62 16.7 62 16.7 100 100 ENE 8 13 29.94 1014 10 16.0934 0 0
8:55 am 08:55 Cloudy 62 16.8 62 16.8 100 100 ENE 5 7 29.95 1014 10 16.0934 0 0
9:15 am 09:15 Cloudy 63 17 62 16.9 99 99 ENE 6 9 29.96 1015 10 16.0934 0 0
9:35 am 09:35 Cloudy 63 17.2 63 17 99 99 ENE 5 7 29.96 1015 10 16.0934 0 0
9:55 am 09:55 Cloudy 64 17.5 63 17.1 98 98 ENE 7 11 29.97 1015 10 16.0934 0 0
10:15 am 10:15 Cloudy 64 17.9 63 17.4 97 97 ENE 6 9 29.97 1015 10 16.0934 0 0
10:35 am 10:35 Cloudy 65 18.2 64 17.5 96 96 E 8 13 29.97 1015 10 16.0934 0 0
10:55 am 10:55 Cloudy 65 18.3 64 17.5 95 95 E 6 9 29.97 1015 10 16.0934 0 0
11:15 am 11:15 Cloudy 65 18.5 64 17.6 95 95 E 6 9 29.97 1015 10 16.0934 0 0
11:35 am 11:35 Cloudy 67 19.2 64 18 93 93 E 5 7 29.97 1015 10 16.0934 0 0
11:55 am 11:55 Cloudy 67 19.6 65 18.1 91 91 E 8 13 29.96 1014 10 16.0934 0 0
12:15 pm 12:15 Cloudy 69 20.3 65 18.1 87 87 E 7 11 29.95 1014 10 16.0934 0 0
12:35 pm 12:35 Mostly Cloudy 69 20.8 65 18.2 85 85 E 9 15 29.94 1014 10 16.0934 0 0
12:55 pm 12:55 Partly Cloudy 69 20.7 65 18.1 85 85 E 8 13 29.94 1014 10 16.0934 0 0
1:15 pm 13:15 Cloudy with Light Rain 70 21 65 18.4 85 85 ESE 9 15 29.93 1014 10 16.0934 0 0
1:55 pm 13:55 Cloudy 72 22 65 18.3 80 80 E 10 17 29.92 1013 10 16.0934 0 0
2:15 pm 14:15 Cloudy 72 22.1 65 18.2 79 79 E 6 9 29.91 1013 10 16.0934 0 0
2:35 pm 14:35 Cloudy 74 23.2 64 18 73 73 SE 7 11 29.9 1012 10 16.0934 0 0
2:55 pm 14:55 Mostly Cloudy 74 23.4 64 18 72 72 ESE 12 19 29.9 1012 10 16.0934 0 0
3:15 pm 15:15 Partly Cloudy 74 23.1 64 17.7 72 72 ESE 9 15 29.9 1012 10 16.0934 0 0
3:35 pm 15:35 Sunny 74 23.2 64 17.6 71 71 SE 15 24 29.89 1012 10 16.0934 0 0
3:55 pm 15:55 Sunny 73 22.6 64 17.5 73 73 ESE 13 20 29.89 1012 10 16.0934 0 0
4:15 pm 16:15 Partly Cloudy 73 22.8 64 17.5 72 72 SE 12 19 29.89 1012 10 16.0934 0 0
4:35 pm 16:35 Partly Cloudy 73 22.9 64 17.6 72 72 SE 8 13 29.89 1012 10 16.0934 0 0
4:55 pm 16:55 Partly Cloudy 73 23 64 17.6 72 72 SE 9 15 29.89 1012 10 16.0934 0 0
5:15 pm 17:15 Mostly Cloudy 73 22.8 64 17.5 72 72 SE 9 15 29.89 1012 10 16.0934 0 0
5:35 pm 17:35 Mostly Cloudy 73 23 64 17.6 72 72 SE 6 9 29.89 1012 10 16.0934 0 0
5:55 pm 17:55 Sunny 72 22.3 63 17.3 73 73 SE 8 13 29.89 1012 10 16.0934 0 0
6:15 pm 18:15 Mostly Cloudy 73 22.8 63 17.4 72 72 ESE 9 15 29.89 1012 10 16.0934 0 0
6:35 pm 18:35 Mostly Cloudy 72 22 63 17.2 74 74 ESE 9 15 29.89 1012 10 16.0934 0 0
6:55 pm 18:55 Sunny 70 21.1 63 17.1 78 78 SE 3 6 29.89 1012 10 16.0934 0 0
7:15 pm 19:15 Partly Cloudy 68 19.8 62 16.9 83 83 Calm 29.91 1013 10 16.0934 0 0
7:35 pm 19:35 Cloudy 69 20.4 63 17.4 83 83 Calm 29.9 1013 10 16.0934 0 0
7:55 pm 19:55 Cloudy 67 19.4 63 17.2 87 87 Calm 29.92 1013 10 16.0934 0 0
8:15 pm 20:15 Cloudy 67 19.7 63 17.4 87 87 SE 6 9 29.93 1013 10 16.0934 0 0
8:35 pm 20:35 Cloudy 69 20.5 63 17.2 81 81 ESE 3 6 29.92 1013 10 16.0934 0 0
8:55 pm 20:55 Cloudy 68 20 63 17.3 85 85 ESE 3 6 29.92 1013 10 16.0934 0 0
9:15 pm 21:15 Cloudy 68 20.1 63 17.4 85 85 ESE 5 7 29.91 1013 10 16.0934 0 0
9:35 pm 21:35 Cloudy 68 20.1 63 17.3 84 84 ESE 5 7 29.91 1013 10 16.0934 0 0
9:55 pm 21:55 Cloudy 68 20.2 63 17.2 83 83 E 5 7 29.91 1013 10 16.0934 0 0
10:15 pm 22:15 Cloudy 69 20.4 63 17.1 81 81 ESE 8 13 29.91 1013 10 16.0934 0 0
10:35 pm 22:35 Cloudy 69 20.4 63 17.2 82 82 ESE 9 15 29.91 1013 10 16.0934 0 0
10:55 pm 22:55 Cloudy 68 20.2 63 17.4 84 84 ESE 8 13 29.9 1013 10 16.0934 0 0
11:15 pm 23:15 Cloudy 68 20.1 64 17.5 85 85 ESE 8 13 29.9 1013 10 16.0934 0 0
11:35 pm 23:35 Cloudy 68 19.8 64 17.6 87 87 E 6 9 29.91 1013 10 16.0934 0 0
11:55 pm 23:55 Cloudy 68 19.8 64 17.6 87 87 E 7 11 29.9 1012 10 16.0934 0 0

Powered by AerisWeather